Погода в Семисточном

Россия / Еврейская автономная область     48°57′40″N   132°36′15″E
темп.,
°C
ветер,
м/с
пор.,
м/с
влажн.,
%
обл.,
%
осадки,
мм/ч
давл.,
гПа
погр.,
м
6 марта, сб
сб601:00−25зсз35880 0.0 1029129
04:00−26зсз22900 0.0 102948
07:00−26зсз22910 0.0 103157
10:00−21з36760 0.0 1031454
13:00−13зсз47570 0.0 1031858
16:00−11з58540 0.0 10281093
19:00−16з37770 0.0 1028151
22:00−20з22880 0.0 102927
7 марта, вс
вс701:00−22зсз22920 0.0 102831
04:00−21з229328 0.0 102827
07:00−20з1194100 0.0 102739
10:00−16зюз1380100 0.0 1026287
13:00−10зюз2471100 0.0 1024594
16:00−8з3571100 0.1 1022827
19:00−12юз239395 0.1 102257
22:00−14зсз129296 0.1 102420
8 марта, пн
пн801:00−17зсз228955 0.0 102425
04:00−18зсз229127 0.0 102627
07:00−19з22920 0.0 102626
10:00−13з23780 0.0 1027208
13:00−6зюз24680 0.0 1025500
16:00−3зюз36640 0.0 1022814
19:00−9юз24900 0.0 102088
22:00−13юз119718 0.0 102025
9 марта, вт
вт901:00−11ссз0196100 0.1 101637
04:00−11ююв0097100 0.1 101322
07:00−12в0198100 0.1 101021
10:00−9зюз1290100 0.8 1009193
13:00−3з247696 0.1 1008612
16:000зсз467498 0.2 1008876
19:00−5зсз51077100 0.0 1011339
22:00−11зсз378465 0.0 1015213
10 марта, ср
ср1001:00−11зсз37860 0.0 1017233
04:00−12зсз23890 0.0 101975
07:00−14зсз22900 0.0 102334
10:00−9з23760 0.0 1025228
13:00−3зюз24660 0.0 1024527
16:00−1зюз34620 0.0 1023809
19:00−5зюз227837 0.0 102230
22:00−8зюз118168 0.0 102223